Time,TemperatureF,DewpointF,PressureIn,WindDirection,WindDirectionDegrees,WindSpeedMPH,WindSpeedGustMPH,Humidity,HourlyPrecipIn,Conditions,Clouds,dailyrainin,SoftwareType,DateUTC
2013-02-14 00:00:00,26.6,21.8,29.80,NW,320,5.0,18.0,82,0.00,,,0.00,Wunderground v.1.15,2013-02-14 05:00:00,
2013-02-14 00:01:00,26.5,21.7,29.80,NW,321,5.0,18.0,82,0.00,,,0.00,Wunderground v.1.15,2013-02-14 05:01:00,
2013-02-14 00:03:00,26.4,21.9,29.80,NW,318,4.0,18.0,83,0.00,,,0.00,Wunderground v.1.15,2013-02-14 05:03:00,
2013-02-14 00:05:00,26.4,21.9,29.80,NW,326,4.0,18.0,83,0.00,,,0.00,Wunderground v.1.15,2013-02-14 05:05:00,
2013-02-14 00:11:00,26.3,21.6,29.80,NNW,328,4.0,18.0,82,0.00,,,0.00,Wunderground v.1.15,2013-02-14 05:11:00,
2013-02-14 00:16:00,26.2,21.5,29.80,NNW,336,4.0,18.0,82,0.00,,,0.00,Wunderground v.1.15,2013-02-14 05:16:00,
2013-02-14 00:22:00,26.2,21.5,29.80,NW,318,4.0,18.0,82,0.00,,,0.00,Wunderground v.1.15,2013-02-14 05:22:00,
2013-02-14 00:28:00,26.1,21.4,29.80,NNW,328,3.0,18.0,82,0.00,,,0.00,Wunderground v.1.15,2013-02-14 05:28:00,
2013-02-14 00:33:00,26.2,21.2,29.80,NNW,328,3.0,18.0,81,0.00,,,0.00,Wunderground v.1.15,2013-02-14 05:33:00,
2013-02-14 00:39:00,26.3,21.0,29.81,NNW,328,4.0,18.0,80,0.00,,,0.00,Wunderground v.1.15,2013-02-14 05:39:00,
2013-02-14 00:45:00,26.3,20.7,29.81,NNW,328,4.0,18.0,79,0.00,,,0.00,Wunderground v.1.15,2013-02-14 05:45:00,
2013-02-14 00:50:00,26.3,20.7,29.81,NNW,328,3.0,18.0,79,0.00,,,0.00,Wunderground v.1.15,2013-02-14 05:50:00,
2013-02-14 00:56:00,26.2,20.6,29.81,NNW,328,3.0,18.0,79,0.00,,,0.00,Wunderground v.1.15,2013-02-14 05:56:00,
2013-02-14 01:01:00,26.3,20.7,29.82,NNW,328,3.0,3.0,79,0.00,,,0.00,Wunderground v.1.15,2013-02-14 06:01:00,
2013-02-14 01:07:00,25.7,20.7,29.82,NW,304,2.0,3.0,81,0.00,,,0.00,Wunderground v.1.15,2013-02-14 06:07:00,
2013-02-14 01:13:00,24.8,20.4,29.81,NW,304,1.0,2.0,83,0.00,,,0.00,Wunderground v.1.15,2013-02-14 06:13:00,
2013-02-14 01:18:00,24.6,20.7,29.81,NW,304,1.0,2.0,85,0.00,,,0.00,Wunderground v.1.15,2013-02-14 06:18:00,
2013-02-14 01:24:00,24.5,20.6,29.82,NW,304,1.0,2.0,85,0.00,,,0.00,Wunderground v.1.15,2013-02-14 06:24:00,
2013-02-14 01:29:00,24.6,20.7,29.82,WNW,303,1.0,2.0,85,0.00,,,0.00,Wunderground v.1.15,2013-02-14 06:29:00,
2013-02-14 01:35:00,24.6,20.5,29.82,NNE,21,1.0,2.0,84,0.00,,,0.00,Wunderground v.1.15,2013-02-14 06:35:00,
2013-02-14 01:40:00,24.3,20.2,29.82,North,355,1.0,1.0,84,0.00,,,0.00,Wunderground v.1.15,2013-02-14 06:40:00,
2013-02-14 01:46:00,24.5,20.4,29.82,NW,323,1.0,2.0,84,0.00,,,0.00,Wunderground v.1.15,2013-02-14 06:46:00,
2013-02-14 01:51:00,24.5,20.6,29.83,WNW,302,1.0,2.0,85,0.00,,,0.00,Wunderground v.1.15,2013-02-14 06:51:00,
2013-02-14 01:57:00,24.3,20.2,29.84,WNW,290,3.0,5.0,84,0.00,,,0.00,Wunderground v.1.15,2013-02-14 06:57:00,
2013-02-14 02:02:00,23.8,19.9,29.83,WNW,293,4.0,5.0,85,0.00,,,0.00,Wunderground v.1.15,2013-02-14 07:02:00,
2013-02-14 02:08:00,24.0,20.1,29.84,WNW,295,4.0,5.0,85,0.00,,,0.00,Wunderground v.1.15,2013-02-14 07:08:00,
2013-02-14 02:13:00,24.1,20.5,29.84,WNW,300,4.0,5.0,86,0.00,,,0.00,Wunderground v.1.15,2013-02-14 07:13:00,
2013-02-14 02:19:00,24.2,20.6,29.85,WNW,297,3.0,5.0,86,0.00,,,0.00,Wunderground v.1.15,2013-02-14 07:19:00,
2013-02-14 02:25:00,24.5,21.2,29.85,WNW,296,3.0,5.0,87,0.00,,,0.00,Wunderground v.1.15,2013-02-14 07:25:00,
2013-02-14 02:30:00,24.8,21.8,29.85,WNW,298,3.0,5.0,88,0.00,,,0.00,Wunderground v.1.15,2013-02-14 07:30:00,
2013-02-14 02:36:00,25.0,21.9,29.85,NW,306,3.0,5.0,88,0.00,,,0.00,Wunderground v.1.15,2013-02-14 07:36:00,
2013-02-14 02:41:00,25.2,22.4,29.85,NW,308,2.0,5.0,89,0.00,,,0.00,Wunderground v.1.15,2013-02-14 07:41:00,
2013-02-14 02:47:00,25.5,23.0,29.85,NW,313,3.0,5.0,90,0.00,,,0.00,Wunderground v.1.15,2013-02-14 07:47:00,
2013-02-14 02:53:00,25.8,23.3,29.85,NW,320,3.0,5.0,90,0.00,,,0.00,Wunderground v.1.15,2013-02-14 07:53:00,
2013-02-14 02:59:00,25.9,23.4,29.85,NW,306,2.0,5.0,90,0.00,,,0.00,Wunderground v.1.15,2013-02-14 07:59:00,
2013-02-14 03:05:00,25.9,23.4,29.85,NW,305,2.0,5.0,90,0.00,,,0.00,Wunderground v.1.15,2013-02-14 08:05:00,
2013-02-14 03:10:00,25.8,23.3,29.86,WNW,295,2.0,5.0,90,0.00,,,0.00,Wunderground v.1.15,2013-02-14 08:10:00,
2013-02-14 03:16:00,25.8,23.3,29.86,NW,323,2.0,5.0,90,0.00,,,0.00,Wunderground v.1.15,2013-02-14 08:16:00,
2013-02-14 03:21:00,25.9,23.6,29.86,NW,305,2.0,5.0,91,0.00,,,0.00,Wunderground v.1.15,2013-02-14 08:21:00,
2013-02-14 03:27:00,25.9,23.6,29.86,WNW,301,2.0,5.0,91,0.00,,,0.00,Wunderground v.1.15,2013-02-14 08:27:00,